Weather History for Antalya, Turkey

Change the Weather History Date:

Thursday, December 27, 2012

  Actual Average Record
Temperature  
Mean Temperature 52 °F -  
Max Temperature 63 °F 59 °F 66 °F (2010)
Min Temperature 42 °F 43 °F 35 °F (1997)
Degree Days  
Heating Degree Days 12    
Growing Degree Days 2 (Base 50)    
Moisture  
Dew Point 48 °F    
Average Humidity 86    
Maximum Humidity 100    
Minimum Humidity 55    
Precipitation  
Precipitation 0.00 in 0.31 in - ()
Sea Level Pressure  
Sea Level Pressure 30.21 in    
Wind  
Wind Speed 4 mph ()    
Max Wind Speed 7 mph    
Max Gust Speed -    
Visibility 5.7 miles    
Events      
Averages and records for this station are not official NWS values.
T = Trace of Precipitation, MM = Missing Value Source: Averaged Metar Reports

Daily Weather History Graph

Daily Weather History Graph

Search for Another Location

Airport:

Trip Planner

Search our weather history database for the weather conditions in past years. The results will help you decide how hot, cold, wet, or windy it might be!

Date:

Astronomy

Dec. 27, 2012 Rise Set
Actual Time 7:08 AM EET 4:47 PM EET
Civil Twilight 6:39 AM EET 5:16 PM EET
Nautical Twilight 6:07 AM EET 5:48 PM EET
Astronomical Twilight 5:35 AM EET 6:20 PM EET
Moon 4:12 PM EET (12/27) 6:04 AM EET (12/27)
Length of Visible Light 10h 36m
Length of Day
9h 38m
Waxing Gibbous, 99% of the Moon is Illuminated
Dec 27
Waxing Gibbous
Dec 28
Full
Jan 5
Last Quarter
Jan 11
New
Jan 19
First Quarter

Hourly Weather History & Observations

Time (EET) Temp. Windchill Dew Point Humidity Pressure Visibility Wind Dir Wind Speed Gust Speed Precip Events Conditions
12:20 AM 44.6 °F 41.4 °F 44.6 °F 100% 30.24 in - North 5.8 mph - N/A   Clear
12:50 AM 44.6 °F 40.7 °F 42.8 °F 93% 30.21 in - North 6.9 mph - N/A   Clear
1:20 AM 44.6 °F 42.2 °F 42.8 °F 93% 30.21 in - North 4.6 mph - N/A   Clear
1:50 AM 44.6 °F 43.1 °F 42.8 °F 93% 30.21 in - NNW 3.5 mph - N/A   Clear
2:00 AM 44 °F - 42 °F 91% 30.22 in 6 mi NNW 3.5 mph - -  
2:20 AM 42.8 °F - 42.8 °F 100% 30.21 in - Variable 1.2 mph - N/A   Clear
2:50 AM 44.6 °F 41.4 °F 44.6 °F 100% 30.21 in - North 5.8 mph - N/A   Clear
3:20 AM 44.6 °F 41.4 °F 42.8 °F 93% 30.21 in - NNW 5.8 mph - N/A   Clear
3:50 AM 44.6 °F 41.4 °F 42.8 °F 93% 30.21 in - North 5.8 mph - N/A   Clear
4:20 AM 42.8 °F 41.1 °F 42.8 °F 100% 30.21 in - NW 3.5 mph - N/A   Clear
4:50 AM 42.8 °F 40.1 °F 42.8 °F 100% 30.21 in - NNW 4.6 mph - N/A   Clear
5:20 AM 44.6 °F 42.2 °F 42.8 °F 93% 30.21 in - North 4.6 mph - N/A   Clear
5:50 AM 42.8 °F 38.6 °F 41.0 °F 93% 30.21 in - North 6.9 mph - N/A   Clear
6:20 AM 42.8 °F 39.3 °F 41.0 °F 93% 30.24 in - NNW 5.8 mph - N/A   Clear
6:50 AM 44.6 °F 42.2 °F 42.8 °F 93% 30.24 in - NW 4.6 mph - N/A   Clear
7:20 AM 44.6 °F 42.2 °F 41.0 °F 87% 30.24 in - North 4.6 mph - N/A   Clear
7:50 AM 46.4 °F 44.3 °F 42.8 °F 87% 30.24 in - North 4.6 mph - N/A   Clear
8:00 AM 46 °F - 42 °F 82% 30.24 in 6 mi North 4.6 mph - -   Partly Cloudy
8:20 AM 48.2 °F - 44.6 °F 87% 30.24 in - North 4.6 mph - N/A   Clear
8:50 AM 50.0 °F - 46.4 °F 87% 30.24 in 6.2 mi North 4.6 mph - N/A   Scattered Clouds
9:20 AM 53.6 °F - 46.4 °F 77% 30.24 in 6.2 mi Variable 2.3 mph - N/A   Scattered Clouds
9:50 AM 55.4 °F - 46.4 °F 72% 30.24 in 6.2 mi Variable 2.3 mph - N/A   Partly Cloudy
10:20 AM 59.0 °F - 46.4 °F 63% 30.24 in 6.2 mi North 3.5 mph - N/A   Partly Cloudy
10:50 AM 60.8 °F - 44.6 °F 55% 30.24 in 6.2 mi Variable 2.3 mph - N/A   Partly Cloudy
11:20 AM 62.6 °F - 50.0 °F 63% 30.24 in 6.2 mi Variable 2.3 mph - N/A   Partly Cloudy
11:50 AM 62.6 °F - 51.8 °F 68% 30.21 in - SSE 4.6 mph - N/A   Clear
12:20 PM 62.6 °F - 53.6 °F 72% 30.21 in 6.2 mi South 5.8 mph - N/A   Partly Cloudy
12:50 PM 62.6 °F - 53.6 °F 72% 30.21 in 6.2 mi South 6.9 mph - N/A   Partly Cloudy
1:20 PM 62.6 °F - 53.6 °F 72% 30.21 in 6.2 mi South 6.9 mph - N/A   Partly Cloudy
1:50 PM 62.6 °F - 53.6 °F 72% 30.18 in 6.2 mi South 4.6 mph - N/A   Partly Cloudy
2:00 PM 63 °F - 53 °F 62% 30.19 in 6 mi South 4.6 mph - -   Scattered Clouds
2:20 PM 62.6 °F - 53.6 °F 72% 30.18 in 6.2 mi SSE 3.5 mph - N/A   Partly Cloudy
2:50 PM 62.6 °F - 53.6 °F 72% 30.18 in 6.2 mi South 4.6 mph - N/A   Partly Cloudy
3:20 PM 60.8 °F - 53.6 °F 77% 30.18 in 6.2 mi South 4.6 mph - N/A   Scattered Clouds
3:50 PM 60.8 °F - 53.6 °F 77% 30.18 in 6.2 mi South 4.6 mph - N/A   Scattered Clouds
4:20 PM 59.0 °F - 53.6 °F 82% 30.18 in 6.2 mi SSE 3.5 mph - N/A   Mostly Cloudy
4:50 PM 57.2 °F - 51.8 °F 82% 30.18 in 6.2 mi South 2.3 mph - N/A   Mostly Cloudy
5:20 PM 55.4 °F - 51.8 °F 88% 30.18 in 6.2 mi South 3.5 mph - N/A   Mostly Cloudy
5:50 PM 53.6 °F - 50.0 °F 88% 30.18 in 6.2 mi Variable 1.2 mph - N/A   Mostly Cloudy
6:20 PM 51.8 °F - 50.0 °F 94% 30.18 in 6.2 mi North 2.3 mph - N/A   Mostly Cloudy
6:50 PM 51.8 °F - 50.0 °F 94% 30.18 in 6.2 mi NNW 3.5 mph - N/A   Mostly Cloudy
7:20 PM 51.8 °F - 50.0 °F 94% 30.21 in 6.2 mi NNW 3.5 mph - N/A   Mostly Cloudy
7:50 PM 50.0 °F - 50.0 °F 100% 30.21 in 6.2 mi North 5.8 mph - N/A   Mostly Cloudy
8:00 PM 50 °F - 50 °F 98% 30.20 in 6 mi North 5.8 mph - -   Scattered Clouds
8:20 PM 50.0 °F - 50.0 °F 100% 30.21 in 3.7 mi North 4.6 mph - N/A   Mostly Cloudy
8:50 PM 50.0 °F - 48.2 °F 94% 30.21 in 3.7 mi North 5.8 mph - N/A   Mostly Cloudy
9:20 PM 50.0 °F - 50.0 °F 100% 30.21 in 4.3 mi NNW 5.8 mph - N/A   Mostly Cloudy
9:50 PM 50.0 °F - 50.0 °F 100% 30.21 in 4.3 mi North 6.9 mph - N/A   Mostly Cloudy
10:20 PM 51.8 °F - 50.0 °F 94% 30.18 in 4.3 mi North 3.5 mph - N/A   Mostly Cloudy
10:50 PM 51.8 °F - 50.0 °F 94% 30.18 in 4.3 mi North 3.5 mph - N/A   Mostly Cloudy
11:20 PM 51.8 °F - 50.0 °F 94% 30.18 in 4.3 mi NW 3.5 mph - N/A   Mostly Cloudy
11:50 PM 51.8 °F - 50.0 °F 94% 30.18 in 4.3 mi NNW 4.6 mph - N/A   Mostly Cloudy